Location: Czu?�w
(50.1404°N, 18.9919°E)
Time: 03:12:13
(UTC+00:00)

Timation 2 Rocket - Pass Details

Date: 27 October 2020
Orbit: 904 x 1077 km, 70.0° (Epoch: 27 November)

Event Time Altitude Azimuth Distance (km) Brightness Sun altitude
Rises 16:30:55 0° 328° (NNW) 3,730 7.4 -10.5°
Reaches altitude 10° 16:33:27 10° 326° (NNW) 2,801 6.8 -10.9°
Maximum altitude 16:40:01 75° 243° (WSW) 1,081 4.4 -12.0°
Drops below altitude 10° 16:46:47 10° 160° (SSE) 2,885 6.3 -13.0°
Sets 16:49:26 0° 158° (SSE) 3,848 6.9 -13.5°
